Weather History for KMSN - December, 2011

Change the Weather History Date:

Wednesday, December 21, 2011

  Actual Average Record
Temperature  
Mean Temperature 34 °F 21 °F  
Max Temperature 39 °F 28 °F 58 °F (1877)
Min Temperature 29 °F 14 °F -22 °F (1872)
Degree Days  
Heating Degree Days 31 44  
Month to date heating degree days 692 853  
Since 1 July heating degree days 2044 2432  
Cooling Degree Days 0 0  
Month to date cooling degree days 0 0  
Year to date cooling degree days 814 568  
Moisture  
Dew Point 32 °F    
Average Humidity 88    
Maximum Humidity 100    
Minimum Humidity 76    
Precipitation  
Precipitation 0.03 in 0.05 in 0.85 in (1887)
Month to date precipitation 1.86 1.29  
Year to date precipitation 30.17 34.03  
Snow  
Snow T in 0.50 in 10.00 in (1887)
Month to date snowfall 1.3 9.3  
Since 1 July snowfall 2.9 13.4  
Snow Depth 0.00 in    
Sea Level Pressure  
Sea Level Pressure 29.74 in    
Wind  
Wind Speed 3 mph (West)    
Max Wind Speed 8 mph    
Max Gust Speed 13 mph    
Visibility 4 miles    
Events Rain , Snow    
T = Trace of Precipitation, MM = Missing Value Source: NWS Daily Summary

Daily Weather History Graph

Daily Weather History Graph

Search for Another Location

Airport or City:

Trip Planner

Search our weather history database for the weather conditions in past years. The results will help you decide how hot, cold, wet, or windy it might be!

Date:

Astronomy

Dec. 21, 2011 Rise Set
Actual Time 7:25 AM CST 4:25 PM CST
Civil Twilight 6:53 AM CST 4:57 PM CST
Nautical Twilight 6:17 AM CST 5:33 PM CST
Astronomical Twilight 5:42 AM CST 6:08 PM CST
Moon 3:56 AM CST (12/21) 1:45 PM CST (12/21)
Length of Visible Light 10h 04m
Length of Day
8h 59m
Waning Crescent, 12% of the Moon is Illuminated
Dec 21
Waning Crescent
Dec 24
New
Jan 1
First Quarter
Jan 9
Full
Jan 16
Last Quarter

Hourly Weather History & Observations

Time (CST) Temp. Windchill Dew Point Humidity Pressure Visibility Wind Dir Wind Speed Gust Speed Precip Events Conditions
12:36 AM 33.8 °F 30.8 °F 32.0 °F 93% 29.74 in 5.0 mi North 3.5 mph - N/A   Overcast
12:45 AM 33.8 °F 29.6 °F 30.2 °F 87% 29.74 in 5.0 mi North 4.6 mph - N/A   Overcast
12:53 AM 33.1 °F 28.7 °F 30.9 °F 92% 29.76 in 5.0 mi North 4.6 mph - N/A   Overcast
1:53 AM 33.1 °F 28.7 °F 30.9 °F 92% 29.75 in 5.0 mi North 4.6 mph - N/A   Overcast
2:53 AM 33.1 °F 30.0 °F 30.9 °F 92% 29.74 in 4.0 mi North 3.5 mph - N/A   Overcast
3:53 AM 33.1 °F - 32.0 °F 96% 29.70 in 3.0 mi Calm Calm - N/A   Overcast
4:53 AM 33.1 °F 27.7 °F 30.9 °F 92% 29.70 in 1.2 mi NNW 5.8 mph - 0.00 in   Light Drizzle
5:06 AM 33.8 °F 28.6 °F 32.0 °F 93% 29.68 in 1.2 mi North 5.8 mph - 0.00 in   Light Drizzle
5:36 AM 33.8 °F - 32.0 °F 93% 29.68 in 1.2 mi Calm Calm - 0.00 in   Light Drizzle
5:44 AM 33.8 °F - 32.0 °F 93% 29.69 in 1.0 mi Calm Calm - 0.00 in   Light Drizzle
5:53 AM 33.1 °F - 32.0 °F 96% 29.72 in 1.2 mi Calm Calm - 0.00 in   Light Drizzle
6:14 AM 33.8 °F - 33.8 °F 100% 29.70 in 0.8 mi Calm Calm - 0.01 in   Light Drizzle
6:37 AM 33.8 °F - 32.0 °F 93% 29.70 in 0.8 mi Calm Calm - 0.02 in Rain Light Rain
6:50 AM 33.8 °F - 32.0 °F 93% 29.70 in 0.8 mi Calm Calm - 0.02 in Rain Light Rain
6:53 AM 33.1 °F - 32.0 °F 96% 29.73 in 0.8 mi Calm Calm - 0.02 in Rain Light Rain
6:57 AM 33.8 °F - 32.0 °F 93% 29.69 in 1.0 mi Calm Calm - 0.00 in Rain Light Rain
7:45 AM 33.8 °F - 32.0 °F 93% 29.69 in 0.8 mi Calm Calm - 0.01 in   Light Drizzle
7:53 AM 33.1 °F - 32.0 °F 96% 29.71 in 0.8 mi Calm Calm - 0.01 in   Light Drizzle
8:43 AM 33.8 °F - 32.0 °F 93% 29.70 in 0.8 mi Calm Calm - 0.00 in Snow Light Snow
8:53 AM 33.1 °F - 32.0 °F 96% 29.73 in 0.8 mi Calm Calm - 0.00 in Snow Light Snow
8:59 AM 33.8 °F - 32.0 °F 93% 29.70 in 0.8 mi Calm Calm - 0.00 in Snow Light Snow
9:07 AM 33.8 °F - 33.8 °F 100% 29.70 in 0.8 mi Calm Calm - 0.00 in Snow Light Snow
9:11 AM 33.8 °F - 32.0 °F 93% 29.70 in 1.0 mi Calm Calm - 0.00 in Snow Light Snow
9:33 AM 33.8 °F - 33.8 °F 100% 29.71 in 1.0 mi Calm Calm - 0.00 in Snow Light Snow
9:53 AM 34.0 °F - 33.1 °F 96% 29.73 in 1.0 mi Calm Calm - 0.00 in Snow Light Snow
10:39 AM 35.6 °F 32.8 °F 33.8 °F 93% 29.71 in 2.0 mi WNW 3.5 mph - 0.00 in   Overcast
10:49 AM 35.6 °F - 33.8 °F 93% 29.71 in 2.0 mi Calm Calm - 0.00 in   Overcast
10:53 AM 36.0 °F - 34.0 °F 93% 29.73 in 2.0 mi Calm Calm - 0.00 in   Overcast
11:16 AM 35.6 °F - 33.8 °F 93% 29.71 in 2.0 mi Calm Calm - N/A   Overcast
11:26 AM 35.6 °F 32.8 °F 33.8 °F 93% 29.71 in 2.0 mi SSW 3.5 mph - N/A   Overcast
11:34 AM 35.6 °F - 33.8 °F 93% 29.71 in 2.0 mi Calm Calm - N/A   Overcast
11:53 AM 36.0 °F 33.3 °F 33.1 °F 89% 29.73 in 2.0 mi WSW 3.5 mph - N/A   Overcast
12:32 PM 37.4 °F 34.9 °F 33.8 °F 87% 29.71 in 5.0 mi SSW 3.5 mph - N/A   Overcast
12:45 PM 37.4 °F 32.8 °F 33.8 °F 87% 29.71 in 5.0 mi SW 5.8 mph - N/A   Overcast
12:53 PM 37.9 °F 33.5 °F 35.1 °F 89% 29.74 in 6.0 mi WSW 5.8 mph - N/A   Mostly Cloudy
1:05 PM 39.2 °F 35.0 °F 35.6 °F 87% 29.71 in 6.0 mi SSW 5.8 mph - N/A   Mostly Cloudy
1:53 PM 37.9 °F 32.7 °F 34.0 °F 86% 29.75 in 6.0 mi WSW 6.9 mph - N/A   Overcast
2:40 PM 39.2 °F 35.0 °F 33.8 °F 81% 29.72 in 9.0 mi WSW 5.8 mph - N/A   Mostly Cloudy
2:49 PM 37.4 °F 33.8 °F 33.8 °F 87% 29.73 in 10.0 mi SW 4.6 mph - N/A   Mostly Cloudy
2:53 PM 37.9 °F 33.5 °F 33.1 °F 83% 29.75 in 10.0 mi Variable 5.8 mph - N/A   Mostly Cloudy
3:53 PM 37.0 °F 33.3 °F 30.9 °F 79% 29.78 in 7.0 mi SW 4.6 mph - N/A   Scattered Clouds
4:53 PM 36.0 °F 30.3 °F 30.9 °F 82% 29.81 in 7.0 mi SW 6.9 mph - N/A   Clear
5:53 PM 35.1 °F 32.2 °F 30.9 °F 85% 29.82 in 6.0 mi SSW 3.5 mph - N/A   Clear
6:53 PM 28.9 °F - 27.0 °F 92% 29.86 in 6.0 mi Calm Calm - N/A   Clear
7:53 PM 30.0 °F - 28.0 °F 92% 29.87 in 6.0 mi Calm Calm - N/A   Clear
8:53 PM 35.1 °F 29.3 °F 30.9 °F 85% 29.89 in 6.0 mi SW 6.9 mph - N/A   Clear
9:53 PM 35.1 °F 31.0 °F 32.0 °F 89% 29.91 in 6.0 mi SSW 4.6 mph - N/A   Overcast
10:53 PM 35.1 °F 30.1 °F 32.0 °F 89% 29.94 in 6.0 mi SW 5.8 mph - N/A   Overcast
11:53 PM 35.1 °F 31.0 °F 32.0 °F 89% 29.93 in 5.0 mi North 4.6 mph - 0.00 in   Light Drizzle